When you browse on this site, cookies collect data to enhance your experience and personalize the content and advertising you see.
Visit our Privacy Policy to learn more. By continuing to use the site, you agree to this use of cookies and data.
  • In Austria
  • List of Countries
  • For 7 days
  • Water Temperature
  • Weather Map
  • News
  • Weather Widgets
  • user-avatar
    Login

    Hourly Weather Bad Tatzmanndorf

    Today, 23 September, Monday

    Time Temperature Precipitation Wind Pressure Humidity
    00:00 +12°C° 0 mm 1 mps 725 mmHg 82%
    01:00 +12°C° 0 mm 1 mps 725 mmHg 83%
    02:00 +12°C° 0 mm 1 mps 725 mmHg 82%
    03:00 +12°C° 0 mm 1 mps 725 mmHg 82%
    04:00 +12°C° 0 mm 1 mps 725 mmHg 81%
    05:00 +12°C° 0 mm 1 mps 725 mmHg 79%
    06:00 +12°C° 0 mm 1 mps 725 mmHg 78%
    07:00 +13°C° 0 mm 1 mps 725 mmHg 76%
    08:00 +14°C° 0 mm 1 mps 725 mmHg 71%
    09:00 +16°C° 0 mm 1 mps 725 mmHg 66%
    10:00 +18°C° 0 mm 2 mps 726 mmHg 61%
    11:00 +18°C° 0 mm 2 mps 726 mmHg 61%
    12:00 +19°C° 0 mm 2 mps 726 mmHg 61%
    13:00 +20°C° 0 mm 2 mps 726 mmHg 61%
    14:00 +19°C° 0 mm 2 mps 726 mmHg 64%
    15:00 +19°C° 0 mm 2 mps 726 mmHg 68%
    16:00 +19°C° 0 mm 3 mps 726 mmHg 71%
    17:00 +18°C° 0 mm 3 mps 726 mmHg 74%
    18:00 +17°C° 0 mm 3 mps 727 mmHg 77%
    19:00 +16°C° 0 mm 3 mps 727 mmHg 81%
    20:00 +15°C° 0 mm 2 mps 727 mmHg 80%
    21:00 +15°C° 0 mm 2 mps 727 mmHg 80%
    22:00 +15°C° 0 mm 2 mps 728 mmHg 80%
    23:00 +15°C° 0 mm 2 mps 728 mmHg 81%

    Tomorrow, 24 September, Tuesday

    Time Temperature Precipitation Wind Pressure Humidity
    00:00 +14°C° 0 mm 2 mps 728 mmHg 81%
    01:00 +14°C° 0 mm 2 mps 728 mmHg 82%
    02:00 +14°C° 0 mm 2 mps 728 mmHg 82%
    03:00 +14°C° 0 mm 2 mps 727 mmHg 81%
    04:00 +14°C° 0 mm 2 mps 727 mmHg 81%
    05:00 +14°C° 0 mm 2 mps 727 mmHg 80%
    06:00 +15°C° 0 mm 2 mps 727 mmHg 80%
    07:00 +15°C° 0 mm 2 mps 727 mmHg 80%
    08:00 +16°C° 0 mm 2 mps 728 mmHg 74%
    09:00 +17°C° 0 mm 2 mps 728 mmHg 69%
    10:00 +19°C° 0 mm 2 mps 728 mmHg 63%
    11:00 +20°C° 0 mm 2 mps 727 mmHg 60%
    12:00 +21°C° 0 mm 2 mps 727 mmHg 56%
    13:00 +23°C° 0 mm 1 mps 727 mmHg 52%
    14:00 +22°C° 0 mm 1 mps 726 mmHg 54%
    15:00 +22°C° 0 mm 1 mps 726 mmHg 56%
    16:00 +21°C° 0 mm 1 mps 725 mmHg 58%
    17:00 +20°C° 0 mm 1 mps 725 mmHg 64%
    18:00 +18°C° 0 mm 1 mps 725 mmHg 69%
    19:00 +16°C° 0 mm 1 mps 725 mmHg 75%
    20:00 +15°C° 0 mm 1 mps 725 mmHg 77%
    21:00 +15°C° 0 mm 1 mps 725 mmHg 80%
    22:00 +14°C° 0 mm 1 mps 725 mmHg 82%
    23:00 +14°C° 0 mm 1 mps 725 mmHg 83%

    Day after tomorrow, 25 September, Wednesday

    Time Temperature Precipitation Wind Pressure Humidity
    00:00 +14°C° 0 mm 1 mps 725 mmHg 83%
    01:00 +13°C° 0 mm 1 mps 725 mmHg 84%
    02:00 +13°C° 0 mm 1 mps 725 mmHg 84%
    03:00 +13°C° 0 mm 1 mps 725 mmHg 84%
    04:00 +13°C° 0 mm 1 mps 724 mmHg 85%
    05:00 +14°C° 0 mm 1 mps 724 mmHg 83%
    06:00 +14°C° 0 mm 1 mps 725 mmHg 80%
    07:00 +14°C° 0 mm 0 mps 725 mmHg 78%
    08:00 +16°C° 0 mm 1 mps 725 mmHg 73%
    09:00 +19°C° 0 mm 1 mps 725 mmHg 67%
    10:00 +21°C° 0 mm 1 mps 725 mmHg 62%
    11:00 +21°C° 0.2 mm 1 mps 725 mmHg 61%
    12:00 +21°C° 0.2 mm 1 mps 725 mmHg 60%
    13:00 +22°C° 0.2 mm 1 mps 724 mmHg 60%
    14:00 +21°C° 0.6 mm 1 mps 724 mmHg 67%
    15:00 +20°C° 0.6 mm 1 mps 724 mmHg 73%
    16:00 +17°C° 0.6 mm 2 mps 724 mmHg 80%
    17:00 +17°C° 0.3 mm 2 mps 724 mmHg 82%
    18:00 +16°C° 0.3 mm 2 mps 725 mmHg 85%
    19:00 +14°C° 0.3 mm 3 mps 725 mmHg 87%
    20:00 +13°C° 0.5 mm 3 mps 725 mmHg 87%
    21:00 +13°C° 0.5 mm 3 mps 725 mmHg 88%
    22:00 +13°C° 0.5 mm 3 mps 726 mmHg 88%
    23:00 +13°C° 1.7 mm 2 mps 726 mmHg 89%

    26 September, Thursday

    Time Temperature Precipitation Wind Pressure Humidity
    00:00 +13°C° 1.7 mm 2 mps 726 mmHg 91%
    01:00 +13°C° 1.7 mm 2 mps 726 mmHg 92%
    02:00 +13°C° 0.9 mm 1 mps 726 mmHg 92%
    03:00 +13°C° 0.9 mm 1 mps 726 mmHg 91%
    04:00 +12°C° 0.9 mm 1 mps 727 mmHg 91%
    05:00 +13°C° 0 mm 1 mps 727 mmHg 91%
    06:00 +13°C° 0 mm 1 mps 727 mmHg 90%
    07:00 +13°C° 0 mm 1 mps 727 mmHg 89%
    08:00 +14°C° 0 mm 1 mps 728 mmHg 81%
    09:00 +16°C° 0 mm 1 mps 728 mmHg 73%
    10:00 +19°C° 0 mm 1 mps 729 mmHg 65%
    11:00 +20°C° 0 mm 1 mps 729 mmHg 60%
    12:00 +21°C° 0 mm 1 mps 728 mmHg 56%
    13:00 +21°C° 0 mm 1 mps 728 mmHg 51%
    14:00 +21°C° 0 mm 1 mps 728 mmHg 55%
    15:00 +20°C° 0 mm 1 mps 728 mmHg 59%
    16:00 +20°C° 0 mm 1 mps 728 mmHg 63%
    17:00 +19°C° 0 mm 1 mps 729 mmHg 67%
    18:00 +18°C° 0 mm 1 mps 729 mmHg 71%
    19:00 +16°C° 0 mm 1 mps 729 mmHg 75%
    20:00 +16°C° 0 mm 1 mps 729 mmHg 76%
    21:00 +15°C° 0 mm 1 mps 730 mmHg 76%
    22:00 +15°C° 0 mm 1 mps 730 mmHg 77%
    23:00 +15°C° 0 mm 1 mps 730 mmHg 77%

    27 September, Friday

    Time Temperature Precipitation Wind Pressure Humidity
    00:00 +15°C° 0 mm 1 mps 730 mmHg 77%
    01:00 +14°C° 0 mm 0 mps 730 mmHg 77%
    02:00 +15°C° 0 mm 1 mps 730 mmHg 78%
    03:00 +14°C° 0 mm 1 mps 730 mmHg 80%
    04:00 +13°C° 0 mm 1 mps 729 mmHg 82%
    05:00 +14°C° 0 mm 1 mps 729 mmHg 81%
    06:00 +14°C° 0 mm 1 mps 729 mmHg 80%
    07:00 +15°C° 0 mm 1 mps 729 mmHg 79%
    08:00 +18°C° 0 mm 1 mps 730 mmHg 72%
    09:00 +19°C° 0 mm 1 mps 730 mmHg 65%
    10:00 +20°C° 0 mm 2 mps 730 mmHg 58%
    11:00 +21°C° 0 mm 2 mps 730 mmHg 55%
    12:00 +23°C° 0 mm 2 mps 729 mmHg 53%
    13:00 +24°C° 0 mm 3 mps 729 mmHg 50%
    14:00 +22°C° 0 mm 3 mps 728 mmHg 52%
    15:00 +22°C° 0 mm 3 mps 728 mmHg 55%
    16:00 +22°C° 0 mm 3 mps 728 mmHg 57%
    17:00 +20°C° 0 mm 3 mps 728 mmHg 64%
    18:00 +18°C° 0 mm 2 mps 728 mmHg 71%
    19:00 +16°C° 0 mm 2 mps 728 mmHg 78%
    20:00 +16°C° 0 mm 2 mps 728 mmHg 79%
    21:00 +16°C° 0 mm 2 mps 728 mmHg 80%
    22:00 +15°C° 0 mm 2 mps 728 mmHg 81%
    23:00 +15°C° 0 mm 1 mps 728 mmHg 83%

    28 September, Saturday

    Time Temperature Precipitation Wind Pressure Humidity
    00:00 +14°C° 0 mm 1 mps 728 mmHg 85%
    01:00 +14°C° 0 mm 1 mps 727 mmHg 86%
    02:00 +14°C° 0 mm 1 mps 727 mmHg 86%
    03:00 +14°C° 0 mm 1 mps 727 mmHg 86%
    04:00 +14°C° 0 mm 1 mps 727 mmHg 86%
    05:00 +14°C° 0 mm 1 mps 727 mmHg 84%
    06:00 +15°C° 0 mm 1 mps 727 mmHg 82%
    07:00 +15°C° 0 mm 1 mps 727 mmHg 81%
    08:00 +16°C° 0 mm 1 mps 728 mmHg 76%
    09:00 +19°C° 0 mm 1 mps 728 mmHg 70%
    10:00 +20°C° 0 mm 1 mps 728 mmHg 65%
    11:00 +19°C° 0.1 mm 2 mps 728 mmHg 68%
    12:00 +19°C° 0.1 mm 2 mps 728 mmHg 71%
    13:00 +18°C° 0.1 mm 2 mps 728 mmHg 74%
    14:00 +18°C° 0.1 mm 2 mps 728 mmHg 76%
    15:00 +18°C° 0.1 mm 1 mps 728 mmHg 79%
    16:00 +18°C° 0.1 mm 1 mps 727 mmHg 81%
    17:00 +16°C° 0 mm 1 mps 727 mmHg 83%
    18:00 +14°C° 0 mm 0 mps 728 mmHg 85%
    19:00 +14°C° 0 mm 0 mps 728 mmHg 87%
    20:00 +14°C° 0 mm 0 mps 728 mmHg 87%
    21:00 +14°C° 0 mm 0 mps 728 mmHg 86%
    22:00 +15°C° 0 mm 1 mps 728 mmHg 86%
    23:00 +14°C° 0 mm 0 mps 728 mmHg 87%
    Show more